Regional Weather Roundup
Issued by NWS

Home | Current Version | Previous Version | Text Only | Print | Product List | Glossary Off
Versions: 1 2 3 4 5 6 7 8 9 10 11 12 13 14 15 16 17 18 19 20 21 22 23 24 25 26 27 28 29 30 31 32 33 34 35 36 37 38 39 40 41 42 43 44 45 46 47 48 49 50

117
ASUS43 KBIS 010210
RWRND

NORTH DAKOTA REGIONAL WEATHER ROUNDUP
NATIONAL WEATHER SERVICE BISMARCK ND
900 PM CDT SAT APR 30 2016

NOTE: "FAIR" INDICATES FEW OR NO CLOUDS BELOW 12,000 FEET WITH NO
SIGNIFICANT WEATHER AND/OR OBSTRUCTIONS TO VISIBILITY.


NDZ001>003-009>011-017-010300-
NORTHWEST NORTH DAKOTA

CITY           SKY/WX    TMP DP  RH WIND       PRES   REMARKS
WILLISTON      CLEAR     56  30  37 E6        30.27R
MINOT          CLEAR     54  27  35 NE7       30.26R
MINOT AFB      CLEAR     54  28  36 E7        30.25R
$$

NDZ018>021-031>035-040>046-010300-
SOUTHWEST NORTH DAKOTA

CITY           SKY/WX    TMP DP  RH WIND       PRES   REMARKS
BISMARCK       CLEAR     53  29  39 NE10      30.23R
DICKINSON      CLEAR     46  27  47 NE7       30.24R
GARRISON         N/A     55  29  36 E5        30.25R
HETTINGER ARPT PTCLDY    47  28  47 NE7       30.24R
$$

NDZ004>008-012>016-024-026-027-054-010300-
NORTHEAST NORTH DAKOTA

CITY           SKY/WX    TMP DP  RH WIND       PRES   REMARKS
GRAND FORKS    PTCLDY    53  29  39 NE12      30.24R
GRND FRKS AFB  CLEAR     51  27  39 E10       30.24R
DEVILS LAKE    CLEAR     51  30  44 NE9       30.25R
$$

NDZ022-023-025-028>030-036>039-047>053-010300-
SOUTHEAST NORTH DAKOTA

CITY           SKY/WX    TMP DP  RH WIND       PRES   REMARKS
FARGO          CLOUDY    55  27  34 NE16      30.17R
JAMESTOWN      CLOUDY    51  27  39 NE16      30.20R
$$





USA.gov is the U.S. government's official web portal to all federal, state and local government web resources and services.